Weather History for Posadas, Argentina

Change the Weather History Date:

Saturday, February 2, 2013

  Actual Average Record
Temperature  
Mean Temperature 86 °F -  
Max Temperature 95 °F 90 °F 98 °F (2006)
Min Temperature 77 °F 70 °F 62 °F (2005)
Cooling Degree Days 21    
Growing Degree Days 36 (Base 50)    
Moisture  
Dew Point 73 °F    
Average Humidity 70    
Maximum Humidity 84    
Minimum Humidity 49    
Precipitation  
Precipitation 0.55 in 0.21 in - ()
Sea Level Pressure  
Sea Level Pressure 29.85 in    
Wind  
Wind Speed 4 mph ()    
Max Wind Speed 17 mph    
Max Gust Speed -    
Visibility 7.3 miles    
Events Rain , Thunderstorm    
Averages and records for this station are not official NWS values.
T = Trace of Precipitation, MM = Missing Value Source: Averaged Metar Reports

Daily Weather History Graph

Daily Weather History Graph

Search for Another Location

Airport:

Trip Planner

Search our weather history database for the weather conditions in past years. The results will help you decide how hot, cold, wet, or windy it might be!

Date:

Astronomy

Feb. 02, 2013 Rise Set
Actual Time 6:17 AM ART 7:37 PM ART
Civil Twilight 5:52 AM ART 8:01 PM ART
Nautical Twilight 5:23 AM ART 8:31 PM ART
Astronomical Twilight 4:52 AM ART 9:02 PM ART
Moon 11:40 PM ART (2/2) 12:17 PM ART (2/2)
Length of Visible Light 14h 09m
Length of Day
13h 19m
Waning Gibbous, 61% of the Moon is Illuminated
Feb 2
Waning Gibbous
Feb 3
Last Quarter
Feb 10
New
Feb 17
First Quarter
Feb 25
Full

Hourly Weather History & Observations

Time (ART) Temp. Heat Index Dew Point Humidity Pressure Visibility Wind Dir Wind Speed Gust Speed Precip Events Conditions
12:00 AM 86.0 °F 93.4 °F 73.4 °F 66% 29.80 in - Calm Calm - N/A   Clear
1:00 AM 82.4 °F 88.2 °F 73.4 °F 74% 29.80 in - NE 3.5 mph - N/A   Clear
2:00 AM 82.4 °F 88.2 °F 73.4 °F 74% 29.77 in - NE 3.5 mph - N/A   Clear
3:00 AM 81 °F - 72 °F 68% 29.74 in 12 mi NE 3.5 mph - -  
3:00 AM 80.6 °F 84.6 °F 71.6 °F 74% 29.77 in - NE 3.5 mph - N/A   Clear
4:00 AM 82.4 °F 88.2 °F 73.4 °F 74% 29.77 in - NE 3.5 mph - N/A   Clear
5:00 AM 80.6 °F 85.4 °F 73.4 °F 79% 29.80 in - Calm Calm - N/A   Clear
6:00 AM 80.6 °F 85.4 °F 73.4 °F 79% 29.83 in - Calm Calm - N/A   Clear
7:00 AM 82.4 °F 87.2 °F 71.6 °F 70% 29.86 in 6.2 mi North 3.5 mph - N/A   Mostly Cloudy
8:00 AM 84.2 °F 89.6 °F 71.6 °F 66% 29.89 in 6.2 mi NNE 3.5 mph - N/A   Mostly Cloudy
9:00 AM 85 °F - 73 °F 59% 29.83 in 12 mi NE 3.5 mph - -   Partly Cloudy
9:00 AM 86.0 °F 93.4 °F 73.4 °F 66% 29.89 in 6.2 mi NE 3.5 mph - N/A   Scattered Clouds
10:00 AM 87.8 °F 95.6 °F 73.4 °F 62% 29.92 in 6.2 mi SW 9.2 mph - N/A   Mostly Cloudy
11:00 AM 89.6 °F 98.2 °F 73.4 °F 59% 29.92 in 6.2 mi SW 5.8 mph - N/A   Mostly Cloudy
12:00 PM 91.4 °F 100.1 °F 73.4 °F 55% 29.92 in 6.2 mi West 5.8 mph - N/A   Mostly Cloudy
1:00 PM 93.2 °F 100.5 °F 71.6 °F 49% 29.89 in 6.2 mi SW 9.2 mph - N/A   Mostly Cloudy
2:00 PM 95.0 °F 104.5 °F 73.4 °F 49% 29.86 in 6.2 mi SW 9.2 mph - N/A   Mostly Cloudy
3:00 PM 88 °F - 73 °F 54% 29.83 in 6 mi East 17.3 mph - - Thunderstorm Thunderstorm
3:00 PM 87.8 °F 95.6 °F 73.4 °F 62% 29.89 in 6.2 mi East 17.3 mph - N/A Thunderstorm Thunderstorm
4:00 PM 80.6 °F 85.4 °F 73.4 °F 79% 29.89 in 6.2 mi South 9.2 mph - N/A Rain , Thunderstorm Light Thunderstorms and Rain
5:00 PM 80.6 °F 86.2 °F 75.2 °F 84% 29.86 in 6.2 mi South 6.9 mph - N/A   Mostly Cloudy
6:00 PM 80.6 °F 85.4 °F 73.4 °F 79% 29.86 in - East 6.9 mph - N/A   Clear
7:00 PM 80.6 °F 84.6 °F 71.6 °F 74% 29.86 in - East 5.8 mph - N/A   Clear
8:00 PM 80.6 °F 85.4 °F 73.4 °F 79% 29.86 in - East 3.5 mph - N/A   Clear
9:00 PM 79 °F - 73 °F 78% 29.81 in 12 mi East 3.5 mph - -   Partly Cloudy
9:00 PM 78.8 °F - 73.4 °F 83% 29.86 in - East 3.5 mph - N/A   Clear
10:00 PM 77.0 °F - 71.6 °F 83% 29.89 in - Calm Calm - N/A   Clear
11:00 PM 78.8 °F - 73.4 °F 83% 29.89 in - Calm Calm - N/A   Clear